Regional Weather Roundup
Issued by NWS

Home | Current Version | Previous Version | Graphics & Text | Print | Product List | Glossary On
Versions: 1 2 3 4 5 6 7 8 9 10 11 12 13 14 15 16 17 18 19 20 21 22 23 24 25 26 27 28 29 30 31 32 33 34 35 36 37 38 39 40 41 42 43 44 45 46 47 48 49 50
000
ASUS43 KLOT 292006
RWRIL

ILLINOIS REGIONAL WEATHER ROUNDUP
NATIONAL WEATHER SERVICE CHICAGO/ROMEOVILLE IL
300 PM CDT TUE JUL 29 2014

NOTE: "FAIR" INDICATES FEW OR NO CLOUDS BELOW 12,000 FEET WITH NO
SIGNIFICANT WEATHER AND/OR OBSTRUCTIONS TO VISIBILITY.

* THESE STATIONS ARE NOT UNDER NWS QUALITY CONTROL. THEY ALSO MAY NOT
  REPORT WEATHER SUCH AS PRECIPITATION OR FOG.

ILZ001-002-007-009-015-016-024-292100-
NORTHWEST ILLINOIS

CITY           SKY/WX    TMP DP  RH WIND       PRES   REMARKS
MOLINE           N/A     79  56  45 W14G20    30.08F HX  80
STERLING*      SUNNY     81  61  50 NW13G18   30.06F HX  81
SAVANNA*       MOSUNNY   82  51  34 NW13      30.06S HX  80
$$

ILZ003-004-008-010-011-017-018-292100-
NORTH CENTRAL ILLINOIS

CITY           SKY/WX    TMP DP  RH WIND       PRES   REMARKS
ROCKFORD       PTSUNNY   79  58  48 W9        30.05S HX  80
FREEPORT*      SUNNY     78  59  51 W12       30.07S
ROCHELLE*      MOSUNNY   80  55  41 NW14G21   30.05S HX  80
DE KALB*       CLOUDY   N/A N/A N/A NW10      30.05
PERU*          MOSUNNY   79  58  48 W9        30.07S HX  80
$$

ILZ005-006-012>014-019>023-292100-
NORTHEAST ILLINOIS

CITY           SKY/WX    TMP DP  RH WIND       PRES   REMARKS
CHICAGO-OHARE  PTSUNNY   79  50  36 NW16      30.01S
CHICAGO-MIDWAY PTSUNNY   79  54  41 NW13G21   30.01S
AURORA         PTSUNNY   79  56  45 W13G20    30.03F HX  80
LANSING*       PTSUNNY   78  53  41 NW5       30.01F
JOLIET*        SUNNY     77  51  39 NW10      30.04S
WAUKEGAN       MOSUNNY   73  58  59 E9        30.01S
DUPAGE AIRPORT CLOUDY    78  54  43 NW14      30.02S
KANKAKEE*      PTSUNNY   75  58  55 W9        30.04F
WHEELING       MOSUNNY   81  51  35 NW14G22   30.02F HX  80
MORRIS*        MOSUNNY   80  58  46 W9G16     30.04S HX  81
ROMEOVILLE*    PTSUNNY   76  53  44 NW14G20   30.03S
NORTHERLY ISL    N/A     67  59  75 E7          N/A
$$

LMZ740>746-292100-
SOUTHERN LAKE MICHIGAN

STATION/POSITION SKY/WX   TEMP    WIND        PRES    VSBY  WAVE
                          AIR SEA DIR/SP/G                  HT/PER
                          (F)     (DEG/KT/KT) (MB)    (MI)  (FT/S)
SOUTHERN BUOY              65 64   CALM  /  2 1016.6S         1
WAUKEGAN HARBOR            66     100/  9/ 10   N/A
HARRISON CRIB              65      90/ 10/ 11   N/A
BURNHAM HARBOR             68      90/  5/  7   N/A
CALUMET HARBOR             67      80/  7/  8 1015.5S
MICHIGAN CITY              65      20/  7/  9   N/A
MICHIGAN CITY 6N           65 69   50/  6/  8   N/A           1/ 3
ST. JOSEPH                 64 68  280/  6/  8   N/A           1/ 3
$$

ILZ025>027-034>036-040-047-049-050-058-095>099-292100-
WEST-CENTRAL ILLINOIS

CITY           SKY/WX    TMP DP  RH WIND       PRES   REMARKS
QUINCY         MOSUNNY   77  54  44 NW9       30.13F
GALESBURG*     MOSUNNY   79  58  47 W8        30.10F HX  80
MACOMB*        PTSUNNY   76  59  56 W13       30.13F
JACKSONVILLE*  MOSUNNY   78  58  50 NW9       30.13S
PITTSFIELD*    SUNNY     76  54  46 NW6       30.14S
$$

ILZ028>032-037-038-041>044-048-051>054-059>061-292100-
CENTRAL ILLINOIS

CITY           SKY/WX    TMP DP  RH WIND       PRES   REMARKS
PONTIAC        MOSUNNY   79  59  50 NW12G17   30.07S HX  80
DECATUR        PTSUNNY   77  55  46 W10G18    30.11S
PEORIA         MOSUNNY   79  55  43 W12       30.09F
LACON*         MOSUNNY   79  54  42 W12       30.07S
LINCOLN*       MOSUNNY   79  54  41 SW5       30.07F
SPRINGFIELD    SUNNY     78  55  44 W9        30.11F
TAYLORVILLE    SUNNY     75  55  50 W7        30.11F
$$

ILZ033-039-045-046-055>057-062-063-292100-
EAST-CENTRAL ILLINOIS

CITY           SKY/WX    TMP DP  RH WIND       PRES   REMARKS
CHAMPAIGN      MOSUNNY   75  58  55 W10       30.09F
DANVILLE*      CLOUDY    74  58  58 W10       30.05S HAZE
RANTOUL*       MOSUNNY   77  56  47 W12       30.09S
MATTOON        MOSUNNY   76  57  51 W13       30.10S
PARIS*         PTSUNNY   76  59  55 NW10      30.09F
$$

ILZ079-100>102-292100-
SOUTHWEST ILLINOIS

CITY           SKY/WX    TMP DP  RH WIND       PRES   REMARKS
ALTON          PTSUNNY   75  57  53 NW9       30.12F
BELLEVILLE     MOSUNNY   79  54  41 VRB7      30.11F
CAHOKIA*       PTSUNNY   79  53  40 N8        30.12S
SPARTA*        PTSUNNY   75  54  46 N5        30.13F
$$

ILZ064>066-069>071-074>076-080>082-084>086-088>090-092>094-292100-
SOUTH-CENTRAL ILLINOIS

CITY           SKY/WX    TMP DP  RH WIND       PRES   REMARKS
CARBONDALE     MOSUNNY   77  51  40 W8        30.13S
CAIRO*         CLOUDY    78  54  43 N3        30.13S
EFFINGHAM*     PTSUNNY   76  46  34 NW9       30.11S
MARION         PTSUNNY   77  52  41 NW12      30.13F
MT. VERNON     SUNNY     77  54  44 W5        30.13S
CENTRALIA*     MOSUNNY   83  51  32 N10       30.11F HX  81
SALEM*         MOSUNNY  N/A N/A N/A W5        30.12S
METROPOLIS*    CLOUDY    77  45  32 N7        30.12S
$$

ILZ067-068-072-073-078-083-087-091-292100-
SOUTHEAST ILLINOIS

CITY           SKY/WX    TMP DP  RH WIND       PRES   REMARKS
FLORA*         SUNNY     77  53  42 W8        30.11S
FAIRFIELD*     MOSUNNY   79  55  44 N6        30.11S
HARRISBURG*    MOSUNNY   77  53  43 NW9       30.13S
ROBINSON*      MOSUNNY   79  61  54 W9        30.10S HX  80
$$

ABBREVIATIONS USED IN REMARKS
   TC - TEMPERATURE IN CELSIUS
  WCI - WIND CHILL INDEX
   HX - HEAT INDEX
  VSB - VISIBILITY
$$



USA.gov is the U.S. government's official web portal to all federal, state and local government web resources and services.